SCP
0 0 0 0 0 0 0 0 0 0 0 0 0 0 0 0 0 0 0 0 0 0 0 0 0 0 0 0 0 0 0 0 0 0 0 0 0 0 0 0 0 0 0
0 0 0 1 1 1 1 0 0 0 0 0 0 0 0 0 0 0 0 0 0 0 0 0 0 0 0 0 0 0 0 0 0 0 0 0 0 0 0 0 0 0 0
0 0 0 1 1 1 1 1 1 1 0 0 0 0 0 0 0 0 0 0 0 0 0 0 0 0 0 0 0 0 0 0 0 0 0 0 0 0 0 0 0 0 0
0 0 0 1 1 1 1 1 1 1 1 0 0 0 0 0 0 0 0 0 0 0 0 0 0 0 0 0 0 0 0 0 0 0 0 0 0 0 0 0 0 0 0
0 0 0 1 1 1 1 1 1 1 1 0 0 0 0 0 0 0 0 0 0 0 0 0 0 0 0 0 0 0 0 0 0 0 0 0 0 0 0 0 0 0 0
0 0 0 1 1 1 1 1 1 1 1 1 0 0 0 0 0 0 0 0 0 0 0 0 0 0 0 0 0 0 0 0 0 0 0 0 0 0 0 0 0 0 0
0 0 0 1 1 1 1 1 1 1 1 1 0 0 0 0 0 0 0 0 0 0 0 0 0 0 0 0 0 0 0 0 0 0 0 0 0 0 0 0 0 0 0
0 0 0 1 1 1 1 1 1 1 1 1 0 0 0 0 0 0 0 0 0 0 0 0 0 0 0 0 0 0 0 0 0 0 0 0 0 0 0 0 0 0 0
0 0 0 0 1 1 1 1 1 1 1 1 0 0 0 0 0 0 0 0 0 0 0 0 0 0 0 0 0 0 0 0 0 0 0 0 0 0 0 0 0 0 0
0 0 0 0 0 0 1 1 1 1 1 1 0 0 0 0 0 0 0 0 0 0 0 0 0 0 0 0 0 0 0 0 0 0 0 0 0 0 0 0 0 0 0
0 0 0 0 0 0 0 0 0 0 0 0 0 0 0 0 0 0 0 0 0 0 0 0 0 0 0 0 0 0 0 0 0 0 0 0 0 0 0 0 0 0 0
0 0 0 0 0 0 0 0 0 0 0 0 0 0 0 0 0 0 0 0 0 0 0 0 0 0 0 0 0 0 0 0 0 0 0 0 0 0 0 0 0 0 0
0 0 0 0 0 1 1 1 1 1 0 0 0 0 0 0 0 0 0 0 0 0 0 0 0 0 0 0 0 0 0 0 0 0 0 0 0 0 0 0 0 0 0
0 0 0 0 0 1 1 1 1 1 1 0 0 0 0 0 0 0 0 0 0 0 0 0 0 0 0 0 0 0 0 0 0 0 0 0 0 0 0 0 0 0 0
0 0 0 0 0 1 1 1 1 0 0 0 0 0 0 0 0 0 0 0 0 0 0 0 0 0 0 0 0 0 0 0 0 0 0 0 0 0 0 0 0 0 0
0 0 0 0 0 0 1 1 0 0 0 0 0 0 0 0 0 0 0 0 0 0 0 0 0 0 0 0 0 0 0 0 0 0 0 0 0 0 0 0 0 0 0
0 0 0 0 0 0 1 0 0 0 0 0 0 0 0 0 0 0 0 0 0 0 0 0 0 0 0 0 0 0 0 0 0 0 0 0 0 0 0 0 0 0 0
0 0 0 0 0 0 1 0 0 0 0 0 0 0 0 0 0 0 0 0 0 0 0 0 0 0 0 0 0 0 0 0 0 0 0 0 0 0 0 0 0 0 0
0 0 0 0 0 0 0 0 0 0 0 0 0 0 0 0 0 0 0 0 0 0 0 0 0 0 0 0 0 0 0 0 0 0 0 0 0 0 0 0 0 0 0
0 0 0 0 0 0 0 0 0 0 0 0 0 0 0 0 0 0 0 0 0 0 0 0 0 0 0 0 0 0 0 0 0 0 0 0 0 0 0 0 0 0 0
0 0 0 0 0 0 0 0 0 0 0 0 0 0 0 0 0 0 0 0 0 0 0 0 0 0 0 0 0 0 0 0 0 0 0 0 0 0 0 0 0 0 0
0 0 0 0 0 0 0 0 0 0 0 0 0 0 0 0 0 0 0 0 0 0 0 0 0 0 0 0 0 0 0 0 0 0 0 0 0 0 0 0 0 0 0
0 0 0 0 0 0 0 0 0 0 0 0 0 0 0 0 0 0 0 0 0 0 0 0 0 0 0 0 0 0 0 0 0 0 0 0 0 0 0 0 0 0 0
0 0 0 0 0 0 0 0 0 0 0 0 0 0 0 0 0 0 0 0 0 0 0 0 0 0 0 0 0 0 0 0 0 0 0 0 0 0 0 0 0 0 0
0 0 0 0 0 0 0 0 0 0 0 0 0 0 0 0 0 0 0 0 0 0 0 0 0 0 0 0 0 0 0 0 0 0 0 0 0 0 0 0 0 0 0
0 0 0 0 0 0 0 0 0 0 0 0 0 0 0 0 0 0 0 0 0 0 0 0 0 0 0 0 0 0 0 0 0 0 0 0 0 0 0 0 0 0 0
Wind_Speed
2 4 7 6 7 8 9 10 11 12 12 12 12 12 12 12 12 12 12 12 12 13 13 14 15 15 16 16 16 16 16 16 16 16 16 15 15 16 15 13 13 14 17
2 5 7 6 7 8 9 10 11 11 11 11 12 12 11 12 12 12 12 12 12 13 14 14 15 15 15 16 16 16 16 16 15 14 12 13 14 15 15 15 14 13 16
1 4 8 6 6 7 9 10 11 11 11 11 11 11 11 11 12 12 12 12 12 13 14 14 14 15 15 15 15 15 15 14 13 10 8 11 13 14 15 15 16 16 16
1 3 7 7 6 7 9 10 11 11 11 11 11 11 11 11 11 11 12 12 12 12 13 14 14 14 14 14 15 14 14 13 10 6 8 10 11 14 14 15 15 15 15
1 3 6 6 6 7 8 10 11 11 11 11 11 10 11 11 11 11 11 11 12 12 13 13 14 14 14 14 14 14 13 12 7 8 9 9 10 13 14 14 14 15 15
2 2 5 5 6 7 8 9 10 11 11 10 10 10 10 11 11 11 11 11 12 12 12 13 13 13 13 13 13 13 12 8 7 9 9 9 9 13 14 14 14 14 15
2 2 5 6 6 6 7 8 9 10 10 10 10 10 10 10 11 11 11 11 11 12 12 12 13 13 13 13 13 12 10 5 7 8 8 8 10 13 13 13 14 14 14
3 3 4 5 5 6 6 7 8 9 9 10 10 10 10 10 10 11 11 11 11 11 12 12 12 12 12 12 12 11 8 5 7 8 8 8 10 12 12 12 13 13 13
4 3 3 4 4 5 5 6 7 7 8 9 9 9 9 9 9 10 11 11 11 11 11 11 12 12 12 12 11 10 7 4 6 6 7 7 9 11 11 11 12 12 12
4 3 3 3 3 3 4 5 6 7 7 7 8 8 8 8 9 10 10 10 10 11 11 11 11 12 11 11 10 9 6 3 6 6 5 7 9 10 10 10 11 11 11
4 4 3 2 2 3 3 4 5 5 6 7 7 8 7 7 8 7 9 9 9 10 11 11 11 11 10 10 9 7 4 4 6 5 5 8 9 9 10 10 10 10 10
3 3 3 2 2 2 2 3 3 4 5 5 5 6 5 5 5 6 8 8 9 9 10 11 11 10 6 6 6 4 3 5 5 4 5 8 9 9 9 9 9 10 10
1 2 3 2 1 2 2 1 2 2 3 4 5 5 4 5 4 5 5 6 7 8 7 8 7 4 4 4 4 3 4 3 3 4 5 7 8 8 9 9 9 9 9
1 2 2 2 1 2 2 1 2 2 2 3 3 4 4 3 4 4 4 4 4 4 5 4 3 4 5 5 4 4 4 3 3 3 5 7 6 7 8 8 8 8 8
1 1 2 2 1 2 2 2 1 2 2 3 3 3 4 3 4 3 3 4 4 4 4 4 4 4 4 4 4 4 4 4 4 4 4 7 6 6 7 8 8 8 8
2 2 1 1 1 2 2 2 2 1 2 3 3 3 3 3 3 4 4 3 3 3 4 4 5 4 4 3 4 4 3 3 3 3 3 5 6 6 6 6 7 7 7
3 2 2 1 1 1 2 2 2 2 2 2 2 3 3 3 3 4 4 3 3 3 4 3 4 4 3 3 3 3 3 3 3 3 3 3 3 5 5 6 6 6 6
3 2 2 2 2 1 2 2 2 2 2 2 2 2 3 2 3 4 3 3 3 3 3 3 3 4 3 3 3 2 2 2 2 3 2 3 2 3 4 5 5 5 5
2 2 2 2 2 1 2 2 2 2 2 2 2 2 2 2 3 3 3 3 3 3 3 3 3 3 4 3 2 2 1 1 2 2 3 3 2 2 2 4 4 3 3
2 2 2 2 2 1 2 2 2 2 2 2 2 2 3 2 3 3 2 3 4 3 3 3 4 3 3 3 3 2 1 1 1 2 2 2 2 2 2 2 2 2 2
2 2 2 2 1 1 1 2 2 1 1 2 2 2 3 3 3 3 2 3 3 3 3 4 4 4 3 3 3 2 1 1 1 1 1 2 2 2 2 2 1 1 1
2 2 2 1 1 1 1 1 1 1 0 1 2 2 2 3 3 3 3 2 3 3 4 4 3 3 3 3 2 3 2 2 2 1 1 2 2 2 2 2 2 2 2
3 2 2 1 0 1 2 1 2 2 1 1 1 1 1 2 3 3 3 2 3 3 3 4 4 3 3 3 2 2 2 2 2 2 2 2 2 2 2 2 2 2 2
4 3 2 1 1 1 1 2 3 2 1 0 0 0 1 2 3 3 3 3 2 2 3 4 3 3 3 3 3 1 1 0 2 2 2 3 2 2 2 2 2 2 3
4 4 2 1 1 1 1 2 3 2 1 1 1 1 1 1 2 2 2 2 2 2 3 3 3 3 3 3 3 2 2 2 2 2 2 2 2 2 2 2 2 2 3
4 3 3 1 1 1 2 1 2 2 1 1 1 1 0 0 1 1 1 1 2 2 2 3 3 3 3 3 3 3 2 2 3 3 3 3 2 2 2 2 2 2 2
Wind_Direction
154 154 151 150 136 138 140 137 132 132 131 129 127 126 122 118 116 114 114 112 111 108 106 104 103 100 98 96 93 90 88 86 83 80 79 76 77 77 74 72 78 78 76
174 165 153 149 138 139 143 141 134 130 129 127 127 127 125 123 121 117 116 116 114 110 108 105 104 101 99 97 94 91 90 88 86 84 86 83 77 78 76 68 66 77 77
136 157 157 148 141 142 144 142 137 133 129 128 128 127 126 125 123 120 118 117 114 110 109 107 105 102 100 98 96 93 92 90 88 88 95 90 86 81 81 78 78 79 78
137 158 156 141 141 141 146 144 139 136 132 131 130 128 127 124 123 122 119 117 115 111 111 109 107 104 102 100 99 96 93 90 85 86 86 85 88 86 84 82 80 79 79
131 154 141 137 137 139 144 145 141 137 135 134 131 129 127 124 122 120 118 115 113 113 111 111 110 108 107 104 102 99 96 93 84 83 83 84 85 87 84 83 82 82 81
93 127 130 124 133 136 139 143 141 140 138 136 133 129 127 125 123 119 115 113 112 114 114 114 113 110 109 106 103 101 99 99 103 87 86 86 87 88 86 85 84 84 82
58 92 127 116 119 126 132 137 142 141 140 139 134 132 130 125 122 119 116 114 114 114 116 116 114 112 110 108 105 102 97 83 89 89 88 86 88 90 88 86 85 85 83
51 73 105 108 112 117 123 127 131 140 139 138 136 134 129 125 122 121 120 116 115 116 114 115 115 113 110 109 107 102 95 90 94 92 89 88 89 92 90 88 87 85 84
52 65 91 105 115 114 114 118 123 129 134 135 134 130 124 121 120 121 119 119 118 116 114 113 112 113 110 107 105 101 87 68 96 91 91 89 92 94 93 91 89 87 85
50 61 75 99 100 119 130 107 111 121 124 127 123 119 117 117 121 120 120 116 115 115 114 113 111 110 110 107 105 102 99 119 98 94 89 91 93 97 96 94 92 90 86
34 40 50 81 98 98 121 116 113 112 115 122 119 113 127 137 134 131 121 115 114 114 116 114 113 110 109 107 104 108 126 108 96 86 84 89 100 100 99 97 96 93 89
18 21 33 36 94 107 102 129 140 129 129 136 136 138 143 142 134 127 115 113 114 114 115 113 114 119 126 123 117 137 119 107 97 91 84 89 100 102 101 101 99 93 91
9 13 24 20 126 112 107 116 128 132 129 126 133 138 139 136 135 133 133 126 126 125 124 123 128 129 127 121 129 125 114 104 98 96 89 91 97 101 103 104 102 97 94
15 4 4 23 36 118 117 114 117 128 128 115 117 131 135 134 138 145 144 142 140 135 134 135 130 126 124 128 130 125 120 107 98 98 90 88 94 101 107 109 107 102 99
319 349 349 15 24 130 127 114 103 123 126 123 120 126 128 141 140 138 141 143 141 137 141 139 136 130 128 128 125 125 121 113 107 106 99 81 82 96 106 108 110 109 105
306 320 326 359 357 130 121 116 107 113 126 126 126 118 125 133 137 137 134 136 135 140 144 144 139 136 133 129 126 125 122 118 111 111 110 102 79 77 94 106 108 113 111
313 318 316 306 346 125 123 117 106 103 119 119 117 119 114 123 140 139 136 135 132 132 134 136 136 134 126 125 124 118 120 124 125 123 123 129 121 88 80 96 103 107 106
326 321 325 323 329 149 131 126 117 108 116 110 113 117 113 119 136 141 141 136 132 135 137 138 139 138 136 132 127 120 120 139 148 135 130 130 132 129 107 89 91 99 98
327 328 334 331 314 187 145 138 122 115 113 115 113 110 113 120 129 137 142 133 134 137 143 145 147 146 142 135 126 122 118 136 154 152 142 131 123 130 132 112 99 87 91
337 340 336 323 304 177 145 133 110 97 101 108 111 109 111 119 125 126 133 137 138 139 142 150 148 144 146 142 134 125 117 134 168 161 157 145 140 144 149 150 154 127 114
0 345 330 320 312 149 134 142 144 128 119 112 104 111 118 119 123 127 126 147 150 155 156 157 150 149 149 150 144 125 113 146 182 175 175 169 157 162 170 179 183 196 156
353 342 339 327 237 173 147 155 167 182 138 113 99 112 128 130 136 140 139 146 158 158 154 156 153 158 158 171 167 158 171 181 180 186 198 199 195 183 186 207 205 212 216
341 337 335 339 318 182 154 131 125 125 117 102 88 90 140 144 144 142 148 150 164 168 168 169 172 175 175 182 196 203 193 196 166 187 206 213 215 206 203 209 226 225 226
335 323 320 329 32 38 135 142 144 146 139 48 158 164 141 146 144 148 151 157 164 175 174 180 185 193 183 190 190 230 264 175 203 186 193 208 214 224 222 219 231 233 230
345 330 314 11 41 44 82 149 151 148 133 100 114 103 103 135 140 142 152 163 173 182 182 188 194 197 196 202 196 188 193 200 223 228 210 206 221 225 235 236 236 238 234
349 350 345 24 54 65 62 102 139 157 147 126 125 88 58 91 145 145 148 170 197 194 192 197 202 206 207 211 209 205 200 201 207 223 228 220 231 229 241 237 236 237 240